Regional Weather Roundup
Issued by NWS

Home | Current Version | Previous Version | Text Only | Print | Product List | Glossary On
Versions: 1 2 3 4 5 6 7 8 9 10 11 12 13 14 15 16 17 18 19 20 21 22 23 24 25 26 27 28 29 30 31 32 33 34 35 36 37 38 39 40 41 42 43 44 45 46 47 48 49 50
000
ASUS43 KIND 282309
RWRIN

WEATHER ROUNDUP FOR INDIANA
NATIONAL WEATHER SERVICE INDIANAPOLIS IN
600 PM EST WED JAN 28 2015

NOTE: "FAIR" INDICATES FEW OR NO CLOUDS BELOW 12,000 FEET WITH NO
SIGNIFICANT WEATHER AND/OR OBSTRUCTIONS TO VISIBILITY.

* - STATION DOES NOT REPORT WEATHER SUCH AS PRECIPITATION OR FOG.

+ - STATION NOT QUALITY CONTROLLED BY THE NATIONAL WEATHER SERVICE.
    USE DATA WITH CAUTION...ESPECIALLY DEWPOINT AND RELATIVE
    HUMIDITY OBSERVATIONS.

INZ001>003-010>013-019-020-290000-
NORTHWEST INDIANA

CITY           SKY/WX    TMP DP  RH WIND       PRES   REMARKS
GARY /AIRPORT/ MOCLDY    34  19  55 SE14G25   30.08F WCI  24
KNOX *+        MOCLDY    30   7  37 SE14      30.12F WCI  20
LA PORTE +     MOCLDY    31  20  64 SE12G17   30.11F WCI  22
MICHIGAN CITY+ MOCLDY    30  12  47 SE6G18    30.10F WCI  24
MONTICELLO +   MOCLDY    32  21  63 SE6       30.12F WCI  27
RENSSELAER +   MOCLDY    34  27  75 SE13      30.10F WCI  25
VALPARAISO     MOCLDY    30  19  63 SE13G21   30.10F WCI  20

$$

LMZ046-743>745-290000-
SOUTHERN LAKE MICHIGAN

STATION/POSITION TIME  TEMP WIND        PRES
                       AIR  DIR/SP/G
                 (UTC) (F)  (DEG/KT/KT) (MB)
MICHIGAN CITY    2300   31  120/ 13/ 17   N/A

$$

INZ004-005-014>016-021>024-290000-
NORTH CENTRAL INDIANA

CITY           SKY/WX    TMP DP  RH WIND       PRES   REMARKS
GOSHEN         PTCLDY    27  15  61 SE12      30.16F WCI  17
LOGANSPORT +   PTCLDY    30  21  69 SE10      30.14F WCI  21
PERU/GRISSOM   PTCLDY    29  21  71 SE10      30.14F WCI  20
ROCHESTER +    MOCLDY    32  21  64 SE10      30.15F WCI  24
SOUTH BEND     PTCLDY    29  15  56 SE17      30.14F WCI  17
WARSAW +       MOCLDY    28  18  64 SE8G17    30.16F WCI  20

$$

INZ006>009-017-018-025>027-290000-
NORTHEAST INDIANA

CITY           SKY/WX    TMP DP  RH WIND       PRES   REMARKS
ANGOLA *+      CLEAR     21  12  68 S8        30.19F WCI  12
AUBURN +       PTCLDY    27  14  59 SE5       30.20F WCI  21
FORT WAYNE     CLOUDY    25  16  68 SE8       30.21F WCI  16
HUNTINGTON +   MOCLDY    27  13  55 SE6       30.18F WCI  21

$$

INZ028-029-035-036-043>045-051>053-290000-
WEST CENTRAL INDIANA

CITY           SKY/WX    TMP DP  RH WIND       PRES   REMARKS
CRAWFORDSVL +  PTCLDY    33  15  48 SE10      30.12F WCI  24
GREENCASTLE +  PTCLDY    34  16  47 SE10      30.14F WCI  26
LAFAYETTE      MOCLDY    34  19  54 SE8       30.12F WCI  27
TERRE HAUTE    MOCLDY    36  20  52 SE10      30.14F

$$

INZ030>032-037>040-046>048-054>057-064-065-290000-
CENTRAL INDIANA

CITY           SKY/WX    TMP DP  RH WIND       PRES   REMARKS
CP ATTERBURY + CLEAR     34  18  51 SE6       30.19F WCI  29
GREENWOOD *+   CLEAR     34  16  47 SE12      30.17  WCI  25
INDIANAPOLIS   MOCLDY    31  17  56 SE10      30.15F WCI  22
-EAGLE CREEK   CLEAR     34  16  47 SE10      30.14F WCI  26
KOKOMO *+      PTCLDY    30  21  69 SE12      30.15F WCI  21
MARION +       MOCLDY    30  19  64 SE9       30.17F WCI  22
MT COMFORT *+  PTCLDY    34  10  37 SE10      30.18F WCI  26
SHELBYVILLE    PTCLDY    34  20  56 SE9       30.18F WCI  27
ZIONSVILLE +   CLEAR     34  17  50 SE13      30.15F WCI  25

$$

INZ033-034-041-042-049-050-058-059-290000-
EAST CENTRAL INDIANA

CITY           SKY/WX    TMP DP  RH WIND       PRES   REMARKS
MUNCIE         MOCLDY    30  19  63 SE8       30.19F WCI  22

$$

INZ060-061-067>069-081>083-085>088-290000-
SOUTHWEST INDIANA

CITY           SKY/WX    TMP DP  RH WIND       PRES   REMARKS
EVANSVILLE     PTCLDY    42  23  46 SE7       30.17S
HUNTINGBURG *+ PTCLDY    39  19  45 SE10      30.18F
WASHINGTON +   PTCLDY    35  22  59 SE8       30.15F WCI  29

$$

INZ062-063-066-070>080-084-089>092-290000-
SOUTH CENTRAL AND SOUTHEAST INDIANA

CITY           SKY/WX    TMP DP  RH WIND       PRES   REMARKS
BLOOMINGTON    PTCLDY    36  15  42 SE14      30.15F
SEYMOUR +      PTCLDY    36  19  51 SE7       30.20

$$



USA.gov is the U.S. government's official web portal to all federal, state and local government web resources and services.